GW4642 Weather Reports


Display with metric or nautical units.
time (UTC)temp
F
wind
direction
speed
MPH
gust
MPH
rain 1hr
in
rain 24hr
in
rain mn
in
humidity
%
barometer
mb
20260510192423 84 345 2.0 4.0 0.00 0.00 0.00 43 1016.1
20260510191919 84 2 3.0 4.0 0.00 0.00 0.00 43 1016.1
20260510191415 84 1 4.0 5.0 0.00 0.00 0.00 41 1016.0
20260510190913 85 298 4.0 4.0 0.00 0.00 0.00 44 1016.0
20260510190410 84 250 2.0 3.0 0.00 0.00 0.00 40 1016.1
20260510185907 84 344 2.0 3.0 0.00 0.00 0.00 40 1016.1
20260510185404 83 184 3.0 4.0 0.00 0.00 0.00 44 1016.1
20260510184901 84 220 3.0 5.0 0.00 0.00 0.00 43 1016.1
20260510184359 84 296 1.0 5.0 0.00 0.00 0.00 43 1016.1
20260510183858 82 214 3.0 6.0 0.00 0.00 0.00 42 1016.0
20260510183355 83 264 1.0 3.0 0.00 0.00 0.00 46 1016.2
20260510182855 84 236 1.0 4.0 0.00 0.00 0.00 39 1016.2
20260510182352 84 228 1.0 2.0 0.00 0.00 0.00 40 1016.0
20260510181847 84 220 1.0 4.0 0.00 0.00 0.00 42 1015.9
20260510181345 84 240 0.0 3.0 0.00 0.00 0.00 40 1016.0
20260510180841 83 201 1.0 4.0 0.00 0.00 0.00 48 1016.0
20260510180338 83 231 1.0 3.0 0.00 0.00 0.00 46 1016.1
20260510175835 82 233 2.0 2.0 0.00 0.00 0.00 48 1016.2
20260510175331 82 138 1.0 4.0 0.00 0.00 0.00 51 1016.3
20260510174827 83 111 1.0 3.0 0.00 0.00 0.00 48 1016.4
20260510174325 82 22 1.0 4.0 0.00 0.00 0.00 47 1016.3
20260510173821 82 294 2.0 6.0 0.00 0.00 0.00 48 1016.4
20260510173317 83 59 2.0 7.0 0.00 0.00 0.00 46 1016.3
20260510172813 83 242 2.0 4.0 0.00 0.00 0.00 47 1016.5
20260510172309 83 206 4.0 4.0 0.00 0.00 0.00 44 1016.5
20260510171806 82 69 2.0 4.0 0.00 0.00 0.00 44 1016.5
20260510171303 81 331 2.0 6.0 0.00 0.00 0.00 45 1016.7
20260510170755 81 311 2.0 6.0 0.00 0.00 0.00 46 1016.8
20260510170251 81 12 4.0 6.0 0.00 0.00 0.00 45 1016.8
20260510165746 83 336 2.0 8.0 0.00 0.00 0.00 44 1016.8
20260510165243 83 326 1.0 4.0 0.00 0.00 0.00 45 1016.7
20260510164740 82 332 1.0 3.0 0.00 0.00 0.00 48 1016.7
20260510164238 83 7 3.0 5.0 0.00 0.00 0.00 46 1016.8
20260510163737 83 243 0.0 3.0 0.00 0.00 0.00 49 1016.7
20260510163234 82 13 2.0 3.0 0.00 0.00 0.00 46 1017.0
20260510162734 82 75 1.0 4.0 0.00 0.00 0.00 47 1016.8
20260510162232 81 19 2.0 5.0 0.00 0.00 0.00 49 1016.9
20260510161727 81 215 2.0 4.0 0.00 0.00 0.00 46 1016.8
20260510161223 81 351 0.0 3.0 0.00 0.00 0.00 49 1017.0
20260510160720 81 345 2.0 3.0 0.00 0.00 0.00 52 1016.6
20260510160215 81 242 2.0 3.0 0.00 0.00 0.00 50 1016.7
20260510155712 80 190 2.0 3.0 0.00 0.00 0.00 50 1016.7
20260510155208 80 218 2.0 5.0 0.00 0.00 0.00 48 1016.7
20260510154703 80 312 3.0 3.0 0.00 0.00 0.00 49 1016.9
20260510154159 79 341 4.0 4.0 0.00 0.00 0.00 49 1016.7
20260510153654 78 302 3.0 3.0 0.00 0.00 0.00 53 1016.6
20260510153151 78 216 4.0 7.0 0.00 0.00 0.00 57 1016.6
20260510152648 78 226 2.0 3.0 0.00 0.00 0.00 54 1016.4
20260510152143 78 81 1.0 3.0 0.00 0.00 0.00 58 1016.5
20260510151641 78 43 0.0 3.0 0.00 0.00 0.00 58 1016.4
20260510151139 76 216 2.0 2.0 0.00 0.00 0.00 62 1016.7
20260510150634 75 187 2.0 3.0 0.00 0.00 0.00 62 1016.5
20260510150130 77 195 3.0 3.0 0.00 0.00 0.00 60 1016.5
20260510145627 75 144 1.0 2.0 0.00 0.00 0.00 59 1016.5
20260510145123 75 206 0.0 2.0 0.00 0.00 0.00 60 1016.4
20260510144619 74 237 2.0 4.0 0.00 0.00 0.00 62 1016.5
20260510144115 74 187 0.0 2.0 0.00 0.00 0.00 61 1016.3
20260510143611 73 199 1.0 4.0 0.00 0.00 0.00 61 1016.1
20260510143108 74 170 1.0 2.0 0.00 0.00 0.00 64 1016.3
20260510142604 73 183 0.0 1.0 0.00 0.00 0.00 66 1016.3
20260510142101 71 304 0.0 5.0 0.00 0.00 0.00 68 1016.3
20260510141558 73 185 3.0 4.0 0.00 0.00 0.00 66 1016.3
20260510141056 71 212 0.0 3.0 0.00 0.00 0.00 67 1016.0
20260510140552 69 230 1.0 4.0 0.00 0.00 0.00 73 1016.2
20260510140051 69 187 1.0 6.0 0.00 0.00 0.00 75 1016.3
20260510135547 68 157 2.0 3.0 0.00 0.00 0.00 75 1016.4
20260510135043 69 204 2.0 3.0 0.00 0.00 0.00 77 1016.5
20260510134540 67 194 3.0 4.0 0.00 0.00 0.00 76 1016.3
20260510134038 69 262 1.0 4.0 0.00 0.00 0.00 75 1016.4
20260510133533 69 183 1.0 2.0 0.00 0.00 0.00 73 1016.4
20260510133029 67 231 0.0 3.0 0.00 0.00 0.00 76 1016.4
20260510132526 66 204 1.0 2.0 0.00 0.00 0.00 78 1016.5
20260510132023 67 187 3.0 6.0 0.00 0.00 0.00 77 1016.4
20260510131521 66 304 0.0 2.0 0.00 0.00 0.00 81 1016.5
20260510131018 64 218 0.0 3.0 0.00 0.00 0.00 84 1016.3
20260510130514 64 186 1.0 3.0 0.00 0.00 0.00 84 1016.5
20260510130012 63 157 2.0 4.0 0.00 0.00 0.00 85 1016.2
20260510125508 62 175 3.0 3.0 0.00 0.00 0.00 87 1016.3
20260510125004 62 209 2.0 3.0 0.00 0.00 0.00 87 1016.0
20260510124501 61 246 0.0 2.0 0.00 0.00 0.00 89 1016.3
20260510123958 62 180 2.0 3.0 0.00 0.00 0.00 87 1016.2
20260510123453 62 89 0.0 0.0 0.00 0.00 0.00 84 1016.2
20260510122950 61 50 0.0 2.0 0.00 0.00 0.00 87 1015.9
20260510122445 61 66 0.0 1.0 0.00 0.00 0.00 87 1016.1
20260510121941 60 49 0.0 2.0 0.00 0.00 0.00 90 1016.0
20260510121439 59 175 0.0 2.0 0.00 0.00 0.00 93 1015.7
20260510120936 58 44 0.0 0.0 0.00 0.00 0.00 96 1015.6
20260510120433 57 53 0.0 1.0 0.00 0.00 0.00 97 1015.7
20260510115929 56 209 0.0 1.0 0.00 0.00 0.00 98 1015.6
20260510115427 56 60 0.0 4.0 0.00 0.00 0.00 99 1015.6
20260510114927 56 31 2.0 2.0 0.00 0.00 0.00 99 1015.5
20260510114424 55 218 0.0 3.0 0.00 0.00 0.00 99 1015.5
20260510113920 55 30 1.0 2.0 0.00 0.00 0.00 99 1015.3
20260510113415 55 77 0.0 3.0 0.00 0.00 0.00 99 1015.3
20260510112913 55 0 2.0 2.0 0.00 0.00 0.00 99 1014.9
20260510112410 54 273 0.0 1.0 0.00 0.00 0.00 99 1014.9
20260510111906 54 129 0.0 0.0 0.00 0.00 0.00 99 1014.8
20260510111402 53 63 0.0 1.0 0.00 0.00 0.00 99 1014.6
20260510110858 53 116 0.0 0.0 0.00 0.00 0.00 98 1014.5
20260510110355 53 31 0.0 1.0 0.00 0.00 0.00 98 1014.5
20260510105851 53 77 0.0 1.0 0.00 0.00 0.00 98 1014.4
20260510105350 53 77 0.0 2.0 0.00 0.00 0.00 98 1014.2
20260510104847 53 57 0.0 1.0 0.00 0.00 0.00 98 1014.3
20260510104344 53 113 0.0 1.0 0.00 0.00 0.00 97 1014.2
20260510103840 54 173 0.0 1.0 0.00 0.00 0.00 97 1014.1
20260510103337 54 100 0.0 1.0 0.00 0.00 0.00 97 1014.0
20260510102833 54 110 0.0 2.0 0.00 0.00 0.00 97 1014.1
20260510102328 55 119 0.0 1.0 0.00 0.00 0.00 97 1013.8
20260510101826 55 29 0.0 1.0 0.00 0.00 0.00 96 1013.8
20260510101324 54 55 0.0 1.0 0.00 0.00 0.00 95 1013.8
20260510100820 55 180 0.0 2.0 0.00 0.00 0.00 96 1013.7
20260510100318 55 55 0.0 1.0 0.00 0.00 0.00 95 1013.8
20260510095814 55 110 0.0 1.0 0.00 0.00 0.00 94 1013.7
20260510095309 54 9 0.0 1.0 0.00 0.00 0.00 94 1013.7
20260510094808 54 69 0.0 0.0 0.00 0.00 0.00 94 1013.5
20260510094258 54 177 2.0 3.0 0.00 0.00 0.00 96 1013.4
20260510093754 53 147 0.0 2.0 0.00 0.00 0.00 95 1013.4
20260510093251 53 116 0.0 0.0 0.00 0.00 0.00 94 1013.4
20260510092748 53 116 0.0 1.0 0.00 0.00 0.00 94 1013.6
20260510092243 53 125 1.0 1.0 0.00 0.00 0.00 94 1013.5
20260510091739 53 125 1.0 2.0 0.00 0.00 0.00 94 1013.6
20260510091237 53 113 0.0 0.0 0.00 0.00 0.00 93 1013.7
20260510090733 53 129 0.0 1.0 0.00 0.00 0.00 93 1013.5
20260510090230 53 124 0.0 1.0 0.00 0.00 0.00 92 1013.4
20260510085725 53 32 0.0 1.0 0.00 0.00 0.00 92 1013.5
20260510085220 54 50 0.0 1.0 0.00 0.00 0.00 92 1013.1
20260510084716 54 110 0.0 2.0 0.00 0.00 0.00 92 1013.2
20260510084213 53 131 0.0 2.0 0.00 0.00 0.00 93 1013.2
20260510083710 53 114 0.0 1.0 0.00 0.00 0.00 93 1013.3
20260510083207 53 32 0.0 1.0 0.00 0.00 0.00 93 1012.9
20260510082702 53 56 0.0 0.0 0.00 0.00 0.00 93 1013.0
20260510082158 53 32 0.0 1.0 0.00 0.00 0.00 92 1012.8
20260510081653 53 113 0.0 0.0 0.00 0.00 0.00 92 1012.9
20260510081149 53 50 0.0 0.0 0.00 0.00 0.00 92 1013.0
20260510080648 54 44 0.0 1.0 0.00 0.00 0.00 92 1012.9
20260510080146 54 118 1.0 2.0 0.00 0.00 0.00 92 1012.9
20260510075642 54 141 0.0 1.0 0.00 0.00 0.00 92 1013.1
20260510075140 54 128 0.0 1.0 0.00 0.00 0.00 92 1013.0
20260510074636 54 89 0.0 1.0 0.00 0.00 0.00 92 1012.9
20260510074132 54 103 0.0 0.0 0.00 0.00 0.00 91 1013.0
20260510073629 54 130 0.0 0.0 0.00 0.00 0.00 91 1013.2
20260510073125 55 110 0.0 1.0 0.00 0.00 0.00 90 1013.1
20260510072621 55 145 0.0 1.0 0.00 0.00 0.00 90 1013.1
20260510072118 55 50 0.0 1.0 0.00 0.00 0.00 89 1013.2
20260510071614 56 130 0.0 0.0 0.00 0.00 0.00 87 1013.1
20260510071112 56 185 2.0 2.0 0.00 0.00 0.00 87 1013.0
20260510070609 55 34 0.0 3.0 0.00 0.00 0.00 90 1013.0
20260510070106 54 170 0.0 0.0 0.00 0.00 0.00 92 1012.7
20260510065557 54 50 0.0 0.0 0.00 0.00 0.00 92 1013.0
20260510065053 54 55 0.0 0.0 0.00 0.00 0.00 92 1012.7
20260510064550 54 66 0.0 0.0 0.00 0.00 0.00 92 1012.7
20260510064046 54 55 0.0 0.0 0.00 0.00 0.00 92 1012.6
20260510063544 55 55 0.0 0.0 0.00 0.00 0.00 91 1012.6
20260510063040 55 50 0.0 1.0 0.00 0.00 0.00 90 1012.6
20260510062536 55 140 0.0 0.0 0.00 0.00 0.00 89 1012.6
20260510062032 55 103 0.0 0.0 0.00 0.00 0.00 90 1012.7
20260510061528 56 105 0.0 1.0 0.00 0.00 0.00 89 1012.6
20260510061025 57 111 1.0 2.0 0.00 0.00 0.00 88 1012.7
20260510060521 57 139 0.0 2.0 0.00 0.00 0.00 87 1012.6
20260510060017 57 147 0.0 1.0 0.00 0.00 0.00 87 1012.5
20260510055513 57 135 0.0 1.0 0.00 0.00 0.00 87 1012.6
20260510055012 56 110 0.0 2.0 0.00 0.00 0.00 88 1012.4
20260510054507 56 159 0.0 1.0 0.00 0.00 0.00 89 1012.5
20260510054003 56 129 0.0 0.0 0.00 0.00 0.00 89 1012.5
20260510053457 57 37 0.0 0.0 0.00 0.00 0.00 89 1012.6
20260510052955 56 32 0.0 1.0 0.00 0.00 0.00 89 1012.6
20260510052450 56 127 0.0 0.0 0.00 0.00 0.00 88 1012.8
20260510051947 57 150 1.0 1.0 0.00 0.00 0.00 87 1012.7
20260510051442 57 98 0.0 0.0 0.00 0.00 0.00 86 1012.5
20260510050939 57 129 0.0 1.0 0.00 0.00 0.00 85 1012.7
20260510050436 57 144 0.0 2.0 0.00 0.00 0.00 86 1012.7
20260510045934 57 142 0.0 0.0 0.00 0.00 0.00 88 1012.6
20260510045430 57 157 0.0 0.0 0.00 0.00 0.00 86 1012.4
20260510044926 58 129 0.0 0.0 0.00 0.00 0.00 84 1012.5
20260510044424 58 114 1.0 2.0 0.00 0.00 0.00 86 1012.5
20260510043920 58 135 1.0 2.0 0.00 0.00 0.00 86 1012.7
20260510043416 58 120 0.0 1.0 0.00 0.00 0.00 84 1012.5
20260510042914 58 139 1.0 1.0 0.00 0.00 0.00 84 1012.6
20260510042410 58 129 0.0 0.0 0.00 0.00 0.00 84 1012.5
20260510041906 58 147 0.0 1.0 0.00 0.00 0.00 85 1012.6
20260510041403 57 142 0.0 0.0 0.00 0.00 0.00 85 1012.5
20260510040901 58 135 0.0 1.0 0.00 0.00 0.00 85 1012.5
20260510040358 58 135 0.0 1.0 0.00 0.00 0.00 84 1012.4
20260510035853 59 135 0.0 1.0 0.00 0.00 0.00 83 1012.6
20260510035349 59 140 1.0 1.0 0.00 0.00 0.00 82 1012.5
20260510034844 60 130 0.0 2.0 0.00 0.00 0.00 81 1012.5
20260510034343 60 147 0.0 2.0 0.00 0.00 0.00 79 1012.7
20260510033839 60 135 0.0 0.0 0.00 0.00 0.00 77 1012.6
20260510033336 61 133 1.0 2.0 0.00 0.00 0.00 77 1012.6
20260510032832 61 158 2.0 2.0 0.00 0.00 0.00 77 1012.7
20260510032329 61 150 0.0 1.0 0.00 0.00 0.00 75 1012.7
20260510031825 62 63 0.0 1.0 0.00 0.00 0.00 73 1012.6
20260510031320 62 124 0.0 1.0 0.00 0.00 0.00 73 1012.5
20260510030815 62 52 1.0 1.0 0.00 0.00 0.00 74 1012.6
20260510030312 62 186 0.0 0.0 0.00 0.00 0.00 73 1012.6
20260510025809 61 130 0.0 0.0 0.00 0.00 0.00 74 1012.4
20260510025306 61 42 1.0 1.0 0.00 0.00 0.00 75 1012.5
20260510024803 62 44 0.0 0.0 0.00 0.00 0.00 74 1012.3
20260510024300 62 135 0.0 0.0 0.00 0.00 0.00 74 1012.4
20260510023756 62 33 0.0 1.0 0.00 0.00 0.00 73 1012.3
20260510023253 62 89 0.0 1.0 0.00 0.00 0.00 71 1012.3
20260510022749 63 37 0.0 0.0 0.00 0.00 0.00 73 1012.3
20260510022244 62 37 0.0 0.0 0.00 0.00 0.00 72 1012.2
20260510021743 63 118 0.0 1.0 0.00 0.00 0.00 71 1012.1
20260510021242 63 40 0.0 0.0 0.00 0.00 0.00 70 1012.1
20260510020736 64 66 0.0 0.0 0.00 0.00 0.00 69 1012.0
20260510020236 64 32 0.0 1.0 0.00 0.00 0.00 69 1011.8
20260510015733 64 157 0.0 0.0 0.00 0.00 0.00 67 1011.8
20260510015230 65 142 0.0 0.0 0.00 0.00 0.00 66 1011.8
20260510014730 66 157 0.0 1.0 0.00 0.00 0.00 64 1011.7
20260510014228 66 192 0.0 1.0 0.00 0.00 0.00 62 1011.4
20260510013723 67 175 0.0 2.0 0.00 0.00 0.00 61 1011.6
20260510013219 67 126 0.0 0.0 0.00 0.00 0.00 61 1011.5
20260510012719 67 207 0.0 0.0 0.00 0.00 0.00 58 1011.3
20260510012214 67 173 0.0 0.0 0.00 0.00 0.00 58 1011.2
20260510011709 68 209 0.0 0.0 0.00 0.00 0.00 58 1011.4
20260510011205 68 142 0.0 0.0 0.00 0.00 0.00 56 1011.3
20260510010701 69 157 0.0 1.0 0.00 0.00 0.00 57 1011.3
20260510010158 69 184 0.0 1.0 0.00 0.00 0.00 53 1011.2
20260510005654 69 217 0.0 2.0 0.00 0.00 0.00 56 1011.1
20260510005151 70 205 0.0 1.0 0.00 0.00 0.00 55 1011.1
20260510004650 70 195 0.0 1.0 0.00 0.00 0.00 56 1011.1
20260510004147 71 180 0.0 1.0 0.00 0.00 0.00 57 1011.1
20260510003645 72 269 0.0 1.0 0.00 0.00 0.00 55 1010.9
20260510003140 73 157 0.0 1.0 0.00 0.00 0.00 52 1010.9
20260510002635 73 185 1.0 2.0 0.00 0.00 0.00 49 1010.9
20260510002132 73 205 0.0 1.0 0.00 0.00 0.00 49 1011.0
20260510001629 74 205 0.0 2.0 0.00 0.00 0.00 49 1010.8
20260510001128 74 229 0.0 2.0 0.00 0.00 0.00 48 1010.8
20260510000628 75 183 0.0 3.0 0.00 0.00 0.00 47 1010.8
20260510000126 75 237 1.0 2.0 0.00 0.00 0.00 44 1010.8
20260509235621 75 207 0.0 2.0 0.00 0.00 0.00 44 1010.8
20260509235119 76 223 2.0 2.0 0.00 0.00 0.00 44 1010.7
20260509234614 76 181 3.0 3.0 0.00 0.00 0.00 42 1010.6
20260509234112 76 215 0.0 3.0 0.00 0.00 0.00 42 1010.5
20260509233610 77 45 0.0 2.0 0.00 0.00 0.00 43 1010.3
20260509233107 77 204 2.0 3.0 0.00 0.00 0.00 43 1010.5
20260509232603 77 207 0.0 2.0 0.00 0.00 0.00 42 1010.4
20260509232100 77 190 0.0 2.0 0.00 0.00 0.00 42 1010.3
20260509231557 77 269 0.0 2.0 0.00 0.00 0.00 43 1010.5
20260509231054 77 199 2.0 3.0 0.00 0.00 0.00 41 1010.5
20260509230551 78 238 0.0 1.0 0.00 0.00 0.00 41 1010.4
20260509230048 78 6 0.0 1.0 0.00 0.00 0.00 39 1010.3
20260509225548 78 197 0.0 2.0 0.00 0.00 0.00 41 1010.5
20260509225044 78 242 0.0 5.0 0.00 0.00 0.00 42 1010.3
20260509224540 78 220 4.0 4.0 0.00 0.00 0.00 40 1010.5
20260509224037 79 192 1.0 2.0 0.00 0.00 0.00 41 1010.6
20260509223534 80 291 0.0 3.0 0.00 0.00 0.00 41 1010.5
20260509223032 80 241 0.0 6.0 0.00 0.00 0.00 39 1010.5
20260509222527 83 269 0.0 2.0 0.00 0.00 0.00 34 1010.4
20260509222023 83 325 2.0 3.0 0.00 0.00 0.00 34 1010.5
20260509221519 83 269 0.0 2.0 0.00 0.00 0.00 35 1010.3
20260509221015 83 315 0.0 4.0 0.00 0.00 0.00 37 1010.5
20260509220512 82 113 1.0 2.0 0.00 0.00 0.00 38 1010.4
20260509220008 83 287 0.0 2.0 0.00 0.00 0.00 36 1010.3
20260509215503 83 234 2.0 3.0 0.00 0.00 0.00 37 1010.4
20260509215001 82 333 0.0 2.0 0.00 0.00 0.00 36 1010.4
20260509214458 84 287 1.0 2.0 0.00 0.00 0.00 37 1010.3
20260509213954 81 285 1.0 7.0 0.00 0.00 0.00 42 1010.2
20260509213451 81 9 0.0 4.0 0.00 0.00 0.00 39 1010.4
20260509212948 81 193 0.0 7.0 0.00 0.00 0.00 38 1010.2
20260509212445 84 234 2.0 3.0 0.00 0.00 0.00 39 1010.2
20260509211942 84 316 2.0 4.0 0.00 0.00 0.00 38 1010.1
20260509211437 83 253 2.0 2.0 0.00 0.00 0.00 41 1010.2
20260509210934 82 252 1.0 4.0 0.00 0.00 0.00 42 1010.1
20260509210431 83 202 3.0 3.0 0.00 0.00 0.00 39 1009.9
20260509205926 84 253 0.0 3.0 0.00 0.00 0.00 40 1010.0
20260509205422 83 254 2.0 4.0 0.00 0.00 0.00 40 1010.1
20260509204917 81 349 2.0 3.0 0.00 0.00 0.00 42 1010.1
20260509204413 82 269 1.0 2.0 0.00 0.00 0.00 40 1010.1
20260509203910 81 317 2.0 4.0 0.00 0.00 0.00 41 1010.1
20260509203406 80 357 3.0 4.0 0.00 0.00 0.00 42 1010.1
20260509202904 81 338 3.0 5.0 0.00 0.00 0.00 44 1010.2
20260509202359 81 28 3.0 3.0 0.00 0.00 0.00 42 1010.2
20260509201854 80 133 0.0 3.0 0.00 0.00 0.00 44 1010.4
20260509201351 82 227 4.0 7.0 0.00 0.00 0.00 42 1010.3
20260509200848 83 227 3.0 4.0 0.00 0.00 0.00 42 1010.4
20260509200348 82 248 2.0 3.0 0.00 0.00 0.00 44 1010.5
20260509195845 81 223 3.0 4.0 0.00 0.00 0.00 47 1010.4
20260509195345 81 213 3.0 6.0 0.00 0.00 0.00 43 1010.5
20260509194845 79 296 1.0 2.0 0.00 0.00 0.00 46 1010.5
20260509194341 79 63 2.0 4.0 0.00 0.00 0.00 45 1010.5
20260509193838 81 342 3.0 6.0 0.00 0.00 0.00 43 1010.5
20260509193338 80 273 1.0 4.0 0.00 0.00 0.00 50 1010.6
20260509192834 79 236 2.0 6.0 0.00 0.00 0.00 46 1010.6